Location: Newark
(40.9833°N, 0.0333°W)
Time: 17:24:55
(UTC+00:00)

Transit 4A - Pass Details

Date: 01 November 2020
Orbit: 862 x 982 km, 66.8° (Epoch: 23 November)

Event Time Altitude Azimuth Distance (km) Brightness Sun altitude
Rises 00:45:03 0° 317° (NW) 3,685 - -60.4°
Reaches altitude 10° 00:48:14 10° 302° (WNW) 2,723 - -60.0°
Maximum altitude 00:52:50 21° 256° (WSW) 2,000 - -59.6°
Drops below altitude 10° 00:57:21 10° 209° (SSW) 2,665 - -59.1°
Sets 01:00:27 0° 194° (SSW) 3,584 - -58.7°
